Location: Allen Fire Department Station 4
(33.1073°N, 96.6988°W)
Time: 10:26:04
(UTC+00:00)

Cosmos 1340 Rocket - Pass Details

Date: 03 December 2021
Orbit: 528 x 557 km, 81.2° (Epoch: 24 January)

Event Time Altitude Azimuth Distance (km) Brightness Sun altitude
Rises 12:26:14 0° 182° (S) 2,658 6.6 -10.0°
Reaches altitude 10° 12:28:22 10° 180° (S) 1,777 5.7 -9.6°
Maximum altitude 12:32:16 71° 96° (E) 571 3.1 -8.8°
Drops below altitude 10° 12:36:13 10° 13° (NNE) 1,806 5.4 -8.1°
Sets 12:38:24 0° 11° (N) 2,707 6.2 -7.6°
